{"data":{"norad_id":60147,"intl_designator":"2024-120N","name":"STARLINK-32019","alt_names":[],"object_type":"PAYLOAD","status":"ACTIVE","operator":null,"country":"US","launch_date":"2024-06-27","launch_site_code":"AFETR","launch_vehicle":null,"mission":null,"orbit_class":"UNKNOWN","rcs_meters":null,"size_class":null,"mass_kg":null,"dimensions":null,"purposes":["comms"],"wikipedia_slug":null,"has_3d_model":false,"image_url":null,"decayed_at":null,"tle_current":{"epoch":"2026-09-21T21:00:40.858560Z","epoch_age_seconds":62711,"freshness":"FRESH","line1":"1 60147U 24120N   26264.87547290  .00001790  00000+0  64140-4 0  9994","line2":"2 60147  53.1595 125.0811 0001247  74.5524 285.5616 15.34381714126466","mean_motion":15.34381714,"eccentricity":0.0001247,"inclination_deg":53.1595,"raan_deg":125.0811,"arg_perigee_deg":74.5524,"mean_anomaly_deg":285.5616,"bstar":6.414e-5,"rev_number":12646,"period_min":93.848876512354,"perigee_km":461.90453103702,"apogee_km":463.61065014791,"semimajor_km":6840.8945905925,"source":"CELESTRAK","updated_at":"2026-09-22T09:00:49.179129Z"}}}